QFA11 YSSY-KLAX

Flight info

Callsign QFA11
Flight time N/A
Altitude 33000
Route DIPSO G595 SOTKI DCT UBLIN A579 TANIL DCT NN B581 WOOBY DCT QUIGG B577 SANTA/N0484F370 B577 BELAN/N0479F390 B577 FICKY GOATZ2
Aircraft A388/J-SADE2E3FGHIJ3J4J5M1RWXY/LB1D1

Departure

Time N/A
Airport Sydney Kingsford Smith International Airport (YSSY)

Arrival

Time 2026-05-07 12:18
Airport Los Angeles International Airport (KLAX)
Time Latitude Longitude Altitude Speed Heading
2026-05-07 12:00 33.33170 -118.25327 14481 ft 336 kts 91°
2026-05-07 12:01 33.33104 -118.24134 14439 ft 336 kts 91°
2026-05-07 12:01 33.32947 -118.21345 14346 ft 336 kts 91°
2026-05-07 12:01 33.32788 -118.18558 14265 ft 335 kts 92°
2026-05-07 12:02 33.32629 -118.15774 14176 ft 335 kts 92°
2026-05-07 12:02 33.32477 -118.13002 14094 ft 334 kts 89°
2026-05-07 12:02 33.32788 -118.10287 13988 ft 330 kts 70°
2026-05-07 12:02 33.33861 -118.07869 13727 ft 330 kts 52°
2026-05-07 12:03 33.35445 -118.05871 13237 ft 330 kts 46°
2026-05-07 12:03 33.36309 -118.04827 13007 ft 326 kts 46°
2026-05-07 12:03 33.37743 -118.03072 12500 ft 324 kts 47°
2026-05-07 12:04 33.39339 -118.01203 12201 ft 324 kts 39°
2026-05-07 12:04 33.41390 -117.99960 11889 ft 334 kts 17°
2026-05-07 12:04 33.43674 -117.99726 11631 ft 328 kts
2026-05-07 12:04 33.45843 -117.99846 11029 ft 330 kts
2026-05-07 12:05 33.48206 -117.99996 10692 ft 326 kts
2026-05-07 12:05 33.50464 -118.00128 10343 ft 324 kts
2026-05-07 12:05 33.52698 -118.00246 10103 ft 316 kts
2026-05-07 12:05 33.54846 -118.00356 9977 ft 302 kts
2026-05-07 12:06 33.56900 -118.00458 9828 ft 290 kts
2026-05-07 12:06 33.58705 -118.00543 9381 ft 291 kts
2026-05-07 12:06 33.59594 -118.00583 9178 ft 290 kts
2026-05-07 12:06 33.61611 -118.00670 8739 ft 289 kts
2026-05-07 12:07 33.62226 -118.00696 8609 ft 289 kts
2026-05-07 12:07 33.62516 -118.00709 8548 ft 289 kts
2026-05-07 12:07 33.63705 -118.00761 8282 ft 288 kts 359°
2026-05-07 12:08 33.65670 -118.01088 7848 ft 290 kts 347°
2026-05-07 12:08 33.67587 -118.01778 7694 ft 284 kts 345°
2026-05-07 12:08 33.69474 -118.02443 7632 ft 280 kts 346°
2026-05-07 12:08 33.71322 -118.03074 7595 ft 275 kts 346°
2026-05-07 12:09 33.73130 -118.03690 7510 ft 263 kts 346°
2026-05-07 12:09 33.74844 -118.04277 7439 ft 249 kts 346°
2026-05-07 12:09 33.76471 -118.04837 7219 ft 240 kts 346°
2026-05-07 12:09 33.78078 -118.05389 6963 ft 237 kts 345°
2026-05-07 12:10 33.82286 -118.07365 6236 ft 239 kts 339°
2026-05-07 12:10 33.83869 -118.08128 5931 ft 237 kts 339°
2026-05-07 12:11 33.85394 -118.08861 5649 ft 235 kts 339°
2026-05-07 12:11 33.86902 -118.09584 5400 ft 232 kts 339°
2026-05-07 12:11 33.88382 -118.10295 5200 ft 226 kts 339°
2026-05-07 12:11 33.89862 -118.10801 5061 ft 219 kts 351°
2026-05-07 12:12 33.91369 -118.10979 4804 ft 214 kts 354°
2026-05-07 12:12 33.92795 -118.11144 4412 ft 209 kts 354°
2026-05-07 12:12 33.94268 -118.11332 4283 ft 215 kts 354°
2026-05-07 12:12 33.95747 -118.11548 4178 ft 217 kts 347°
2026-05-07 12:13 33.97022 -118.12401 4083 ft 207 kts 314°
2026-05-07 12:13 33.97654 -118.13873 4039 ft 197 kts 283°
2026-05-07 12:13 33.97737 -118.15513 3991 ft 198 kts 268°
2026-05-07 12:13 33.97590 -118.17166 3831 ft 199 kts 263°
2026-05-07 12:14 33.97408 -118.18775 3565 ft 188 kts 264°
2026-05-07 12:14 33.97254 -118.20305 3335 ft 182 kts 264°
2026-05-07 12:14 33.97098 -118.21811 3098 ft 180 kts 264°
2026-05-07 12:14 33.96945 -118.23307 2854 ft 179 kts 263°
2026-05-07 12:15 33.96792 -118.24798 2629 ft 181 kts 263°
2026-05-07 12:15 33.96639 -118.26273 2551 ft 176 kts 263°
2026-05-07 12:15 33.96493 -118.27714 2175 ft 165 kts 263°
2026-05-07 12:15 33.96354 -118.29067 1940 ft 161 kts 263°
2026-05-07 12:16 33.96217 -118.30402 1725 ft 160 kts 263°
2026-05-07 12:16 33.96075 -118.31780 1500 ft 164 kts 263°
2026-05-07 12:16 33.95943 -118.33063 1284 ft 146 kts 263°
2026-05-07 12:16 33.95824 -118.34222 1095 ft 139 kts 263°
2026-05-07 12:17 33.95705 -118.35383 911 ft 137 kts 263°
2026-05-07 12:17 33.95590 -118.36517 734 ft 136 kts 263°
2026-05-07 12:17 33.95472 -118.37628 565 ft 135 kts 262°
2026-05-07 12:17 33.95354 -118.38749 389 ft 135 kts 263°
2026-05-07 12:18 33.95250 -118.39822 218 ft 135 kts 263°
2026-05-07 12:18 33.95141 -118.40855 98 ft 130 kts 263°
2026-05-07 12:18 33.95051 -118.41758 102 ft 88 kts 263°
2026-05-07 12:18 33.95005 -118.42213 99 ft 21 kts 263°
2026-05-07 12:19 33.94986 -118.42383 98 ft 22 kts 260°
2026-05-07 12:19 33.94928 -118.42558 99 ft 23 kts 238°
2026-05-07 12:19 33.94828 -118.42706 103 ft 22 kts 221°
2026-05-07 12:19 33.94698 -118.42782 105 ft 20 kts 181°
2026-05-07 12:20 33.94636 -118.42725 102 ft 10 kts 88°
2026-05-07 12:20 33.94644 -118.42616 100 ft 15 kts 83°
2026-05-07 12:20 33.94659 -118.42474 101 ft 19 kts 82°
2026-05-07 12:20 33.94673 -118.42321 99 ft 21 kts 84°
2026-05-07 12:21 33.94693 -118.42132 99 ft 24 kts 82°
2026-05-07 12:21 33.94715 -118.41927 100 ft 26 kts 83°
2026-05-07 12:21 33.94731 -118.41743 101 ft 27 kts 84°
2026-05-07 12:21 33.94746 -118.41591 99 ft 11 kts 83°
2026-05-07 12:22 33.94760 -118.41478 101 ft 16 kts 81°
2026-05-07 12:22 33.94788 -118.41340 100 ft 16 kts 79°
2026-05-07 12:22 33.94767 -118.41296 101 ft 8 kts 158°
2026-05-07 12:22 33.94693 -118.41285 100 ft 14 kts 176°
2026-05-07 12:23 33.94584 -118.41268 99 ft 18 kts 172°
2026-05-07 12:23 33.94447 -118.41248 99 ft 21 kts 173°
2026-05-07 12:23 33.94291 -118.41224 99 ft 22 kts 173°
2026-05-07 12:23 33.94249 -118.41218 101 ft 4 kts 173°
2026-05-07 12:24 33.94200 -118.41211 99 ft 11 kts 173°
2026-05-07 12:24 33.94171 -118.41174 101 ft 8 kts 88°
2026-05-07 12:24 33.94173 -118.41140 100 ft 4 kts 84°
2026-05-07 12:24 33.94176 -118.41105 98 ft 0 kts 83°
2026-05-07 12:25 33.94177 -118.41097 98 ft 0 kts 83°